FW5248 Weather Reports


time (UTC)temp
C
wind
direction
speed
KPH
gust
KPH
rain 1hr
cm
rain 24hr
cm
rain mn
cm
humidity
%
barometer
mb
20260507191954 11 240 4.8 6.4 0.00 0.36 0.10 87 1013.0
20260507191239 11 270 4.8 8.0 0.00 0.36 0.10 87 1013.1
20260507190740 11 255 1.6 8.0 0.00 0.36 0.10 89 1013.1
20260507190237 11 258 1.6 6.4 0.00 0.36 0.10 88 1013.1
20260507185959 11 246 1.6 6.4 0.00 0.36 0.10 89 1013.1
20260507185235 11 241 3.2 6.4 0.00 0.36 0.10 89 1013.3
20260507185005 11 250 1.6 9.7 0.00 0.36 0.10 91 1013.4
20260507184849 11 259 3.2 9.7 0.00 0.36 0.10 90 1013.4
20260507183735 11 257 1.6 6.4 0.00 0.36 0.10 91 1013.4
20260507183236 11 221 3.2 8.0 0.00 0.36 0.10 91 1013.4
20260507183005 11 283 3.2 8.0 0.00 0.36 0.10 92 1013.5
20260507182234 11 268 1.6 4.8 0.00 0.36 0.10 93 1013.4
20260507181734 11 325 3.2 6.4 0.00 0.36 0.10 92 1013.4
20260507181233 11 309 3.2 8.0 0.00 0.36 0.10 92 1013.5
20260507180732 11 354 3.2 8.0 0.00 0.36 0.10 92 1013.5
20260507180233 11 240 3.2 8.0 0.00 0.36 0.10 92 1013.5
20260507180006 11 291 4.8 11.3 0.00 0.36 0.10 93 1013.5
20260507175234 11 356 6.4 12.9 0.00 0.36 0.10 92 1013.5
20260507174733 11 324 8.0 14.5 0.00 0.36 0.10 91 1013.6
20260507174233 11 289 8.0 16.1 0.00 0.36 0.10 91 1013.5
20260507173734 11 346 8.0 16.1 0.00 0.36 0.10 91 1013.5
20260507173233 11 304 8.0 16.1 0.00 0.36 0.10 91 1013.5
20260507172733 11 282 6.4 14.5 0.00 0.36 0.10 91 1013.3
20260507172457 11 275 4.8 9.7 0.00 0.36 0.10 92 1013.1
20260507171732 11 348 4.8 9.7 0.00 0.36 0.10 92 1013.1
20260507171230 11 273 4.8 11.3 0.00 0.36 0.10 92 1013.2
20260507170732 11 335 4.8 11.3 0.00 0.36 0.10 92 1013.1
20260507170234 11 264 6.4 12.9 0.00 0.36 0.10 93 1013.0
20260507165733 11 1 6.4 12.9 0.00 0.36 0.10 92 1013.1
20260507165233 11 301 4.8 9.7 0.00 0.36 0.10 93 1012.9
20260507164732 11 317 6.4 12.9 0.00 0.36 0.10 92 1013.1
20260507164230 11 301 6.4 14.5 0.00 0.36 0.10 92 1013.2
20260507163731 11 351 6.4 14.5 0.00 0.36 0.10 93 1013.1
20260507163230 11 343 6.4 14.5 0.00 0.36 0.10 92 1013.0
20260507162728 11 345 6.4 14.5 0.00 0.36 0.10 92 1013.1
20260507162228 11 286 4.8 11.3 0.00 0.36 0.10 92 1013.1
20260507161728 11 293 3.2 11.3 0.00 0.36 0.10 92 1013.1
20260507161228 11 306 3.2 8.0 0.00 0.36 0.10 92 1013.1
20260507160726 11 259 4.8 9.7 0.00 0.38 0.10 92 1013.0
20260507160458 11 347 8.0 14.5 0.00 0.38 0.10 92 1013.1
20260507155723 11 356 8.0 14.5 0.00 0.41 0.10 92 1013.2
20260507155223 11 353 8.0 14.5 0.00 0.41 0.10 92 1013.0
20260507154723 11 333 9.7 14.5 0.00 0.41 0.10 93 1012.9
20260507154223 11 321 8.0 16.1 0.00 0.43 0.10 93 1013.0
20260507153952 11 330 6.4 16.1 0.00 0.43 0.10 93 1012.8
20260507153709 11 347 6.4 14.5 0.00 0.43 0.10 94 1012.8
20260507152718 11 344 6.4 14.5 0.00 0.43 0.10 93 1012.8
20260507152709 11 331 9.7 19.3 0.00 0.43 0.10 94 1012.8
20260507151717 11 5 11.3 19.3 0.00 0.43 0.10 94 1012.8
20260507151214 11 324 8.0 19.3 0.00 0.43 0.10 93 1012.9
20260507150714 11 336 8.0 16.1 0.00 0.43 0.10 94 1012.8
20260507150215 11 3 8.0 16.1 0.00 0.43 0.10 94 1012.6
20260507145715 11 8 8.0 16.1 0.00 0.43 0.10 94 1012.8
20260507145215 11 18 8.0 16.1 0.00 0.43 0.10 94 1012.6
20260507144714 11 7 8.0 17.7 0.00 0.43 0.10 94 1012.6
20260507144215 11 338 9.7 20.9 0.00 0.43 0.10 94 1012.7
20260507143719 11 297 11.3 25.7 0.00 0.43 0.10 94 1012.8
20260507143221 11 303 12.9 25.7 0.00 0.43 0.10 94 1012.6
20260507142719 11 351 11.3 20.9 0.00 0.43 0.10 94 1012.4
20260507142219 11 316 9.7 19.3 0.00 0.43 0.10 94 1012.4
20260507141718 11 348 8.0 17.7 0.00 0.43 0.10 94 1012.3
20260507141444 12 328 6.4 12.9 0.00 0.43 0.10 95 1012.3
20260507140715 12 337 4.8 9.7 0.00 0.43 0.10 94 1012.2
20260507140211 12 328 4.8 9.7 0.00 0.43 0.10 94 1012.4
20260507135935 12 2 6.4 16.1 0.00 0.43 0.10 94 1012.3
20260507135436 12 336 6.4 16.1 0.00 0.43 0.10 94 1012.6
20260507134710 12 345 4.8 12.9 0.00 0.43 0.10 94 1012.3
20260507134210 12 328 4.8 12.9 0.00 0.43 0.10 94 1012.3
20260507133709 12 334 4.8 12.9 0.00 0.43 0.10 95 1012.0
20260507133209 12 341 4.8 16.1 0.00 0.43 0.10 95 1012.0
20260507132710 12 351 4.8 16.1 0.00 0.43 0.10 94 1012.0
20260507132210 12 350 3.2 9.7 0.00 0.43 0.10 94 1012.0
20260507131709 12 302 4.8 11.3 0.00 0.43 0.10 94 1012.2
20260507131209 12 359 3.2 11.3 0.00 0.43 0.10 94 1012.3
20260507130710 12 344 3.2 9.7 0.00 0.43 0.10 94 1012.3
20260507130209 12 299 4.8 9.7 0.00 0.43 0.10 95 1012.3
20260507125930 12 314 4.8 9.7 0.00 0.46 0.10 94 1012.3
20260507125207 12 337 4.8 11.3 0.00 0.48 0.10 95 1012.2
20260507124707 12 304 4.8 11.3 0.03 0.51 0.10 95 1012.2
20260507124208 12 311 3.2 8.0 0.03 0.53 0.10 95 1012.1
20260507123709 12 277 4.8 12.9 0.03 0.53 0.10 95 1011.8
20260507123208 12 336 6.4 12.9 0.03 0.53 0.10 95 1011.5
20260507122708 12 356 4.8 11.3 0.03 0.53 0.10 95 1011.7
20260507122208 12 353 4.8 6.4 0.05 0.53 0.10 95 1011.8
20260507121932 12 330 3.2 6.4 0.05 0.53 0.10 95 1011.8
20260507121211 12 325 3.2 6.4 0.05 0.53 0.10 94 1011.9
20260507120708 12 351 1.6 6.4 0.05 0.56 0.10 95 1012.2
20260507120207 12 14 1.6 6.4 0.05 0.56 0.10 95 1012.0
20260507115706 12 4 1.6 4.8 0.05 0.58 0.10 95 1012.3
20260507115426 12 16 1.6 4.8 0.05 0.58 0.10 94 1012.3
20260507114703 12 295 3.2 6.4 0.03 0.56 0.08 94 1012.7
20260507114203 12 293 3.2 6.4 0.03 0.56 0.08 94 1012.4
20260507113926 12 307 3.2 6.4 0.03 0.56 0.08 94 1012.3
20260507113204 12 296 3.2 8.0 0.03 0.56 0.08 94 1012.3
20260507112702 12 272 3.2 8.0 0.03 0.56 0.08 94 1012.3
20260507112202 12 262 1.6 8.0 0.00 0.53 0.05 94 1012.1
20260507111932 12 304 3.2 8.0 0.00 0.53 0.05 94 1012.0
20260507111203 12 343 3.2 8.0 0.00 0.53 0.05 94 1011.9
20260507110703 12 25 4.8 12.9 0.00 0.53 0.05 95 1011.8
20260507110202 12 307 4.8 12.9 0.00 0.53 0.05 95 1011.8
20260507105704 12 11 3.2 8.0 0.00 0.53 0.05 95 1011.7
20260507105203 12 359 3.2 8.0 0.00 0.53 0.05 94 1011.5
20260507104711 12 311 4.8 6.4 0.00 0.53 0.05 94 1011.4
20260507104209 12 321 6.4 14.5 0.00 0.53 0.05 95 1011.5
20260507103923 12 321 6.4 14.5 0.00 0.53 0.05 95 1011.3
20260507103159 12 349 4.8 14.5 0.00 0.53 0.05 95 1011.1
20260507102659 12 15 4.8 8.0 0.00 0.53 0.05 95 1011.1
20260507102426 12 359 3.2 6.4 0.00 0.53 0.05 95 1011.3
20260507101700 12 289 4.8 8.0 0.00 0.53 0.05 95 1011.5
20260507101421 12 320 6.4 14.5 0.00 0.53 0.05 95 1011.4
20260507100657 12 3 8.0 14.5 0.00 0.53 0.05 95 1011.3
20260507100157 12 346 8.0 14.5 0.00 0.53 0.05 95 1011.2
20260507095916 12 351 8.0 14.5 0.00 0.53 0.05 95 1010.9
20260507095157 12 345 8.0 14.5 0.00 0.53 0.05 95 1011.1
20260507094656 12 320 9.7 14.5 0.00 0.53 0.05 94 1011.2
20260507094158 12 312 11.3 19.3 0.00 0.53 0.05 94 1011.2
20260507093655 13 10 9.7 19.3 0.00 0.53 0.05 94 1010.9
20260507093155 13 350 3.2 14.5 0.00 0.53 0.05 95 1010.8
20260507092938 13 43 3.2 9.7 0.00 0.53 0.05 95 1010.7
20260507092156 13 3 8.0 17.7 0.00 0.53 0.05 95 1011.0
20260507091655 13 25 9.7 17.7 0.03 0.53 0.05 94 1010.9
20260507091201 13 9 9.7 14.5 0.03 0.53 0.05 95 1010.9
20260507090654 13 20 9.7 14.5 0.03 0.53 0.05 95 1011.0
20260507090152 13 30 11.3 19.3 0.03 0.53 0.05 95 1011.1
20260507085659 13 25 11.3 19.3 0.03 0.53 0.05 95 1011.0
20260507085159 14 21 9.7 19.3 0.03 0.53 0.05 95 1010.9
20260507084703 14 17 9.7 16.1 0.03 0.53 0.05 95 1011.0
20260507084159 14 341 9.7 16.1 0.03 0.53 0.05 95 1010.8
20260507083657 15 3 9.7 16.1 0.03 0.53 0.05 95 1010.6
20260507083159 15 346 11.3 17.7 0.03 0.53 0.05 95 1010.5
20260507082655 15 359 9.7 17.7 0.03 0.53 0.05 95 1010.4
20260507082156 15 13 6.4 14.5 0.03 0.53 0.05 96 1010.4
20260507081655 16 347 4.8 8.0 0.00 0.51 0.03 96 1010.2
20260507081155 16 301 4.8 9.7 0.00 0.51 0.03 96 1010.7
20260507080650 16 303 4.8 9.7 0.00 0.51 0.03 96 1010.9
20260507080150 16 270 4.8 9.7 0.00 0.51 0.03 96 1010.9
20260507075649 16 259 4.8 9.7 0.00 0.51 0.03 96 1011.0
20260507075148 16 289 4.8 6.4 0.00 0.51 0.03 96 1010.8
20260507074648 16 303 3.2 9.7 0.00 0.51 0.03 96 1010.8
20260507074148 16 293 4.8 9.7 0.00 0.51 0.03 96 1010.7
20260507073645 16 303 6.4 16.1 0.00 0.51 0.03 96 1010.6
20260507073146 16 351 8.0 16.1 0.00 0.51 0.03 96 1010.7
20260507072642 16 281 4.8 16.1 0.00 0.51 0.03 96 1010.6
20260507072405 16 271 1.6 3.2 0.00 0.51 0.03 96 1010.6
20260507071642 16 283 1.6 4.8 0.00 0.51 0.03 96 1010.9
20260507071404 16 322 3.2 6.4 0.00 0.51 0.03 96 1010.8
20260507070648 16 278 4.8 6.4 0.00 0.51 0.03 96 1010.7
20260507070142 16 245 4.8 6.4 0.00 0.51 0.03 96 1011.1
20260507065908 16 249 4.8 6.4 0.00 0.51 0.03 96 1011.0
20260507065143 16 262 4.8 6.4 0.03 0.51 0.03 96 1011.0
20260507064643 16 271 4.8 6.4 0.03 0.51 0.03 96 1010.9
20260507064144 16 241 4.8 8.0 0.03 0.51 0.03 96 1010.9
20260507063643 16 229 4.8 8.0 0.03 0.51 0.03 96 1010.9
20260507063139 16 235 4.8 6.4 0.03 0.51 0.03 96 1010.9
20260507062639 16 249 4.8 9.7 0.03 0.51 0.03 96 1011.3
20260507062139 16 247 4.8 9.7 0.03 0.51 0.03 96 1011.4
20260507061636 16 289 3.2 8.0 0.03 0.51 0.03 96 1011.3
20260507061135 16 278 3.2 6.4 0.03 0.51 0.03 96 1011.4
20260507060634 16 322 3.2 6.4 0.03 0.51 0.03 96 1011.4
20260507060138 16 266 3.2 4.8 0.03 0.51 0.03 96 1011.6
20260507055632 16 266 3.2 4.8 0.03 0.51 0.03 96 1011.7
20260507055129 16 266 1.6 4.8 0.00 0.48 0.00 96 1011.6
20260507054629 16 236 1.6 4.8 0.00 0.48 0.00 96 1011.7
20260507054349 16 91 0.0 3.2 0.00 0.48 0.00 96 1011.5
20260507053622 16 91 0.0 3.2 0.00 0.48 0.00 96 1011.3
20260507053347 16 91 1.6 3.2 0.00 0.48 0.00 95 1011.5
20260507052618 16 91 1.6 3.2 0.00 0.48 0.00 95 1011.3
20260507052117 16 331 1.6 4.8 0.00 0.48 0.00 95 1011.5
20260507051615 16 14 3.2 6.4 0.00 0.48 0.00 95 1011.5
20260507051348 16 122 3.2 6.4 0.00 0.48 0.00 95 1011.5
20260507050614 16 149 4.8 6.4 0.00 0.48 0.00 95 1011.6
20260507050115 16 114 3.2 6.4 0.00 0.48 0.00 95 1011.5
20260507045619 16 104 1.6 4.8 0.00 0.48 0.00 95 1011.5
20260507045117 16 226 1.6 4.8 0.00 0.48 0.00 95 1012.0
20260507044613 16 238 1.6 4.8 0.00 0.48 0.00 95 1012.0
20260507044114 16 307 1.6 6.4 0.00 0.48 0.00 95 1012.0
20260507043612 16 307 3.2 8.0 0.00 0.48 0.00 95 1012.0
20260507043113 16 237 3.2 8.0 0.00 0.48 0.00 95 1012.4
20260507042612 16 195 3.2 8.0 0.00 0.48 0.00 95 1012.2
20260507042114 16 197 3.2 8.0 0.00 0.48 0.00 95 1012.3
20260507041613 16 209 3.2 8.0 0.00 0.48 0.00 95 1012.6
20260507041109 16 231 4.8 11.3 0.00 0.48 0.00 95 1012.4
20260507040605 16 212 6.4 11.3 0.00 0.48 0.00 95 1012.4
20260507040106 16 224 6.4 11.3 0.00 0.48 0.00 95 1012.6
20260507035602 16 222 6.4 12.9 0.00 0.48 0.48 95 1012.7
20260507035103 16 195 6.4 12.9 0.00 0.48 0.48 95 1012.7
20260507034602 16 154 6.4 12.9 0.00 0.48 0.48 95 1012.6
20260507034104 16 243 8.0 14.5 0.00 0.48 0.48 95 1012.7
20260507033602 16 179 6.4 14.5 0.00 0.48 0.48 95 1012.2
20260507033108 16 160 6.4 12.9 0.00 0.48 0.48 95 1012.3
20260507032611 16 193 4.8 11.3 0.00 0.48 0.48 95 1012.6
20260507032108 16 229 4.8 9.7 0.00 0.48 0.48 95 1013.0
20260507031606 16 211 4.8 9.7 0.00 0.48 0.48 95 1012.7
20260507031105 16 180 3.2 9.7 0.00 0.48 0.48 95 1012.7
20260507030817 16 170 3.2 6.4 0.00 0.48 0.48 95 1012.6
20260507030114 16 245 3.2 8.0 0.00 0.48 0.48 94 1012.7
20260507025557 16 221 1.6 8.0 0.03 0.48 0.48 94 1012.4
20260507025056 16 233 1.6 6.4 0.05 0.48 0.48 94 1012.3
20260507024557 16 233 1.6 6.4 0.05 0.48 0.48 94 1012.2
20260507024054 16 315 3.2 9.7 0.10 0.48 0.48 94 1012.4
20260507023552 16 181 6.4 11.3 0.13 0.48 0.48 94 1012.3
20260507023055 16 174 6.4 11.3 0.13 0.48 0.48 94 1012.1
20260507022556 16 172 4.8 8.0 0.13 0.48 0.48 94 1012.0
20260507022052 16 207 4.8 11.3 0.13 0.48 0.48 94 1012.1
20260507021554 16 203 3.2 11.3 0.13 0.48 0.48 94 1012.3
20260507021050 16 183 4.8 8.0 0.13 0.48 0.48 94 1012.3
20260507020548 16 166 3.2 8.0 0.15 0.48 0.48 94 1012.6
20260507020050 16 196 4.8 11.3 0.15 0.48 0.48 93 1012.8
20260507015550 16 206 6.4 17.7 0.13 0.46 0.46 93 1013.0
20260507015529 17 178 8.0 17.7 0.15 0.43 0.43 93 1013.7
20260507015444 16 189 8.0 17.7 0.13 0.43 0.43 93 1013.3
20260507014319 17 225 6.4 14.5 0.10 0.38 0.41 93 1013.6
20260507013545 17 231 6.4 12.9 0.10 0.36 0.36 93 1013.7
20260507013044 17 228 4.8 12.9 0.10 0.36 0.36 92 1013.6
20260507012546 17 196 4.8 11.3 0.10 0.36 0.36 92 1013.3
20260507012045 17 243 6.4 11.3 0.10 0.36 0.36 92 1013.2
20260507011543 17 193 6.4 11.3 0.13 0.36 0.36 92 1013.0
20260507011534 17 180 4.8 9.7 0.13 0.36 0.36 91 1012.8
20260507010544 17 225 6.4 11.3 0.10 0.33 0.33 91 1012.7
20260507010041 17 219 8.0 14.5 0.10 0.33 0.33 91 1012.6
20260507005540 17 208 8.0 14.5 0.10 0.33 0.33 90 1012.4
20260507005049 17 211 6.4 12.9 0.08 0.30 0.30 90 1012.4
20260507004544 17 175 6.4 12.9 0.05 0.28 0.28 89 1012.6
20260507004045 18 238 4.8 11.3 0.05 0.28 0.28 89 1012.9
20260507003540 18 220 6.4 12.9 0.03 0.25 0.25 88 1012.8
20260507003039 18 194 8.0 12.9 0.03 0.25 0.25 88 1012.7
20260507002802 18 264 6.4 12.9 0.03 0.25 0.25 88 1012.4
20260507002039 18 207 8.0 19.3 0.03 0.25 0.25 87 1012.0
20260507001538 18 179 9.7 19.3 0.00 0.23 0.23 87 1011.9
20260507001038 18 201 11.3 17.7 0.00 0.23 0.23 86 1011.7
20260507000539 18 196 11.3 24.1 0.00 0.23 0.23 86 1011.5
20260507000038 19 205 9.7 24.1 0.00 0.23 0.23 85 1011.6
20260506235539 19 201 8.0 16.1 0.00 0.23 0.23 85 1011.4
20260506235038 19 166 8.0 16.1 0.00 0.23 0.23 85 1011.7
20260506234540 19 199 8.0 16.1 0.00 0.23 0.23 85 1011.8
20260506234534 19 235 9.7 17.7 0.00 0.23 0.23 84 1011.8
20260506233534 19 207 9.7 17.7 0.00 0.23 0.23 84 1011.7
20260506233306 20 233 9.7 25.7 0.00 0.23 0.23 84 1011.7
20260506232758 20 245 9.7 25.7 0.00 0.23 0.23 84 1011.6
20260506232306 20 297 9.7 22.5 0.00 0.23 0.23 83 1011.5
20260506231805 20 203 9.7 22.5 0.00 0.23 0.23 83 1011.3
20260506231038 20 139 9.7 17.7 0.00 0.23 0.23 83 1011.7
20260506230534 20 178 9.7 16.1 0.00 0.23 0.23 83 1011.6
20260506230034 20 212 8.0 16.1 0.00 0.23 0.23 83 1011.6
20260506225532 20 235 4.8 14.5 0.00 0.23 0.23 84 1011.4
20260506225033 20 218 4.8 11.3 0.00 0.23 0.23 84 1011.3
20260506225026 20 173 4.8 9.7 0.00 0.23 0.23 85 1011.3
20260506224032 20 226 6.4 11.3 0.00 0.23 0.23 84 1011.4
20260506223754 20 189 8.0 14.5 0.00 0.23 0.23 83 1011.6
20260506223029 21 192 8.0 14.5 0.00 0.23 0.23 83 1011.6
20260506222528 21 205 6.4 14.5 0.00 0.23 0.23 83 1011.5
20260506222028 21 221 4.8 8.0 0.00 0.23 0.23 84 1011.4
20260506221529 21 231 4.8 8.0 0.00 0.23 0.23 84 1011.2
20260506221305 21 198 4.8 8.0 0.00 0.23 0.23 84 1010.9
20260506220528 20 255 6.4 11.3 0.00 0.23 0.23 83 1011.0
20260506220029 21 224 6.4 14.5 0.00 0.23 0.23 82 1011.0
20260506215528 21 183 8.0 14.5 0.00 0.23 0.23 82 1011.0
20260506215036 21 191 6.4 14.5 0.00 0.23 0.23 82 1011.4
20260506214533 21 172 8.0 16.1 0.00 0.23 0.23 83 1011.4
20260506214032 21 207 6.4 17.7 0.00 0.23 0.23 81 1011.4
20260506213531 21 189 4.8 17.7 0.00 0.23 0.23 81 1011.4
20260506213249 21 221 6.4 12.9 0.00 0.23 0.23 80 1011.5
20260506212743 21 270 8.0 14.5 0.00 0.23 0.23 79 1011.7
20260506212305 21 238 8.0 14.5 0.00 0.23 0.23 79 1011.8
20260506212024 21 203 6.4 14.5 0.00 0.23 0.23 79 1011.7
20260506211244 21 263 11.3 24.1 0.00 0.23 0.23 78 1011.6
20260506210525 21 245 12.9 24.1 0.00 0.23 0.23 78 1011.6
20260506210024 21 245 14.5 25.7 0.00 0.23 0.23 77 1011.7
20260506205526 21 259 11.3 25.7 0.00 0.23 0.23 77 1011.5
20260506205025 21 221 9.7 25.7 0.00 0.23 0.23 78 1011.7
20260506204525 22 221 11.3 25.7 0.00 0.23 0.23 78 1011.8
20260506204023 22 213 12.9 25.7 0.00 0.23 0.23 79 1011.8
20260506203523 21 245 14.5 25.7 0.00 0.23 0.23 80 1011.8
20260506203024 21 262 14.5 29.0 0.00 0.23 0.23 79 1011.9
20260506202524 21 251 12.9 29.0 0.00 0.23 0.23 78 1011.6
20260506202022 21 228 12.9 25.7 0.00 0.23 0.23 78 1011.6
20260506201520 21 233 14.5 25.7 0.00 0.23 0.23 78 1011.6
20260506201019 21 246 12.9 24.1 0.00 0.23 0.23 77 1011.6
20260506200518 21 214 11.3 24.1 0.00 0.23 0.23 77 1011.4
20260506200019 21 232 12.9 24.1 0.00 0.23 0.23 77 1011.5
20260506195745 21 230 12.9 24.1 0.00 0.23 0.23 76 1011.7
20260506195016 22 228 12.9 24.1 0.00 0.23 0.23 76 1011.6
20260506194515 22 239 14.5 24.1 0.00 0.23 0.23 77 1011.7
20260506194019 21 244 14.5 32.2 0.00 0.23 0.23 76 1011.8
20260506193518 21 216 14.5 32.2 0.00 0.23 0.23 77 1011.8
20260506193019 21 236 11.3 22.5 0.00 0.23 0.23 76 1012.1
20260506193006 22 203 11.3 30.6 0.00 0.23 0.23 77 1012.3
20260506192228 22 228 14.5 30.6 0.00 0.23 0.23 76 1012.2